STARLINK-4080 (52835 NORAD) Tracking and Keplerian Element Data

This shows tracking and keplerian element data for the satellite.

Feedback or suggestion? Click here.




ElementValue
Catalog52835
NameSTARLINK-4080
Epoch Orbit130
Epoch Day270.00001157
Epoch Year2022
RAAN289.0883
Inclination53.2156
Eccentricity0.000182
Argument of Perigee49.6954
Mean Anonmoly289.9543
Mean Motion15.08810905
Decay Rate0.00045184
L11 52835U 22062F 22270.00001157 .00045184 00000+0 28412-2 0 9992
L22 52835 53.2156 289.0883 0001820 49.6954 289.9543 15.08810905 1304

Live tracking and technical data element details for STARLINK-4080 (NORAD 52835). STARLINK-4080 can be tracked NOW for your location showing map with azimuth and elevation plus other details from your city location.

Track the satellite on the map from your city or location and see movement details for azimuth, elevation, latitude, longitude, range, height, and movement on the map or in text.







IsCatalogInMostPopularTable: catalog: 52835, numindb: 5
Update: records affected: 1



GetName: 52835 STARLINK-4080

Hit Count: updated at: Thu, 06 Oct 2022 03:36:01 GMT